Погода в Маннаре

Шри-Ланка     8°59′06″N   79°54′35″E
темп.,
°C
ветер,
м/с
пор.,
м/с
влажн.,
%
обл.,
%
осадки,
мм/ч
давл.,
гПа
погр.,
м
13 апреля, вт
вт1323:30+25вюв468724 0.1 1012232
02:30+25вюв3588100 0.0 1011191
05:30+25юв3590100 0.0 1011189
08:30+28юв3475100 0.0 1013483
11:30+31зюз3361100 0.5 10121004
14:30+28юз337696 3.1 1009231
17:30+28ссз2273100 6.3 1010269
20:30+27юв2277100 0.2 1012198
14 апреля, ср
ср1423:30+26юв228281 0.2 1012173
02:30+26юв2285100 0.0 1010172
05:30+25ююв238695 0.1 1010193
08:30+28ююв2374100 1.6 1013342
11:30+30зюз4366100 1.6 10121015
14:30+30з446773 0.6 1008725
17:30+28зюз227577 2.5 1009360
20:30+27ю237965 2.7 1011225
15 апреля, чт
чт1523:30+27ююв2383100 2.7 1011264
02:30+26ююв3387100 0.0 1009263
05:30+26ю3486100 1.8 1010325
08:30+27ю4582100 3.3 1013409
11:30+29юз447493 4.8 1012691
14:30+30зюз546894 0.3 1008973
17:30+29зюз44737 0.5 1008597
20:30+26ююв478598 1.4 1011244
16 апреля, пт
пт1623:30+25ююв3487100 2.3 1011167
02:30+25ю3583100 0.1 1009265
05:30+26ю3483100 0.4 1010318
08:30+28ююз3475100 0.1 1012591
11:30+30ююз4466100 0.1 1011944
14:30+30зюз5467100 0.0 1008787
17:30+29юз5673100 0.0 1008440
20:30+28ююз467778 0.0 1011499
17 апреля, сб
сб1723:30+27ююз468042 0.0 1011542
02:30+27ююз578141 0.0 1009638
05:30+27ююз588082 0.0 1010671
08:30+30ююз667179 0.0 10131078
11:30+30юз776732 0.1 10121124
14:30+30юз78678 0.0 1009834
17:30+29юз78718 0.0 1010752
20:30+28ююз587521 0.0 1012693